Weather History for KHQZ - September, 2013

Change the Weather History Date:

Tuesday, September 17, 2013

  Actual Average (KDFW) Record (KDFW)
Temperature  
Mean Temperature 84 °F 77 °F  
Max Temperature 93 °F 88 °F 99 °F (1997)
Min Temperature 75 °F 67 °F 44 °F (1903)
Degree Days  
Heating Degree Days 0 0  
Month to date heating degree days 0  
Since 1 July heating degree days 0  
Cooling Degree Days 19 13  
Month to date cooling degree days 261  
Year to date cooling degree days 2443  
Growing Degree Days 34 (Base 50)    
Moisture  
Dew Point 62 °F    
Average Humidity 47    
Maximum Humidity 66    
Minimum Humidity 29    
Precipitation  
Precipitation 0.00 in 0.07 in 1.76 in (1908)
Month to date precipitation 1.55  
Year to date precipitation 25.66  
Sea Level Pressure  
Sea Level Pressure 30.02 in    
Wind  
Wind Speed 4 mph (SE)    
Max Wind Speed 9 mph    
Max Gust Speed 21 mph    
Visibility 10 miles    
Events      
T = Trace of Precipitation, MM = Missing Value Source: NWS Daily Summary

Daily Weather History Graph

Daily Weather History Graph

Search for Another Location

Airport or City:

Trip Planner

Search our weather history database for the weather conditions in past years. The results will help you decide how hot, cold, wet, or windy it might be!

Date:

Astronomy

Sep. 17, 2013 Rise Set
Actual Time 7:11 AM CDT 7:29 PM CDT
Civil Twilight 6:46 AM CDT 7:53 PM CDT
Nautical Twilight 6:17 AM CDT 8:22 PM CDT
Astronomical Twilight 5:48 AM CDT 8:51 PM CDT
Moon 6:14 PM CDT (9/17) 5:11 AM CDT (9/17)
Length of Visible Light 13h 07m
Length of Day
12h 17m
Waxing Gibbous, 96% of the Moon is Illuminated
Sep 17
Waxing Gibbous
Sep 19
Full
Sep 26
Last Quarter
Oct 4
New
Oct 11
First Quarter

Hourly Weather History & Observations

Time (CDT) Temp. Heat Index Dew Point Humidity Pressure Visibility Wind Dir Wind Speed Gust Speed Precip Events Conditions
12:15 AM 83.7 °F 84.3 °F 61.9 °F 48% 30.04 in 10.0 mi ESE 5.8 mph - N/A   Mostly Cloudy
12:35 AM 83.3 °F 84.1 °F 62.4 °F 49% 30.04 in 10.0 mi ESE 4.6 mph - N/A   Overcast
12:55 AM 82.9 °F 83.8 °F 62.6 °F 50% 30.04 in 10.0 mi ESE 5.8 mph - N/A   Scattered Clouds
1:15 AM 82.6 °F 83.6 °F 62.6 °F 51% 30.04 in 10.0 mi ESE 4.6 mph - N/A   Scattered Clouds
1:35 AM 82.4 °F 83.4 °F 62.6 °F 51% 30.04 in 10.0 mi ESE 3.5 mph - N/A   Clear
1:55 AM 81.5 °F 82.7 °F 62.8 °F 53% 30.04 in 10.0 mi SE 4.6 mph - N/A   Scattered Clouds
2:15 AM 81.3 °F 82.5 °F 62.8 °F 53% 30.04 in 10.0 mi SSE 3.5 mph - N/A   Scattered Clouds
2:35 AM 79.9 °F - 63.5 °F 57% 30.04 in 7.0 mi SSE 4.6 mph - N/A   Clear
2:55 AM 80.1 °F 81.5 °F 63.0 °F 56% 30.04 in 10.0 mi SE 5.8 mph - N/A   Clear
3:15 AM 79.7 °F - 63.1 °F 57% 30.04 in 10.0 mi SE 5.8 mph - N/A   Clear
3:35 AM 79.0 °F - 63.5 °F 59% 30.04 in 7.0 mi SSE 4.6 mph - N/A   Clear
3:55 AM 78.1 °F - 63.5 °F 61% 30.04 in 10.0 mi SSE 5.8 mph - N/A   Clear
4:15 AM 77.7 °F - 63.7 °F 62% 30.03 in 10.0 mi South 5.8 mph - N/A   Clear
4:35 AM 77.5 °F - 63.5 °F 62% 30.03 in 10.0 mi South 4.6 mph - N/A   Clear
4:55 AM 77.9 °F - 62.8 °F 60% 30.04 in 10.0 mi South 4.6 mph - N/A   Clear
5:15 AM 77.5 °F - 62.4 °F 59% 30.04 in 7.0 mi SSE 4.6 mph - N/A   Clear
5:35 AM 76.6 °F - 63.1 °F 63% 30.04 in 10.0 mi South 3.5 mph - N/A   Clear
5:55 AM 77.5 °F - 62.6 °F 60% 30.04 in 10.0 mi South 3.5 mph - N/A   Clear
6:15 AM 76.6 °F - 61.9 °F 60% 30.04 in 10.0 mi Calm Calm - N/A   Clear
6:35 AM 76.5 °F - 61.9 °F 61% 30.04 in 10.0 mi SE 3.5 mph - N/A   Clear
6:55 AM 75.9 °F - 62.2 °F 62% 30.04 in 10.0 mi Calm Calm - N/A   Clear
7:15 AM 75.9 °F - 63.9 °F 66% 30.05 in 10.0 mi Calm Calm - N/A   Clear
7:35 AM 75.6 °F - 63.0 °F 65% 30.06 in 10.0 mi Calm Calm - N/A   Clear
7:55 AM 76.1 °F - 63.3 °F 64% 30.07 in 10.0 mi Calm Calm - N/A   Clear
8:15 AM 77.9 °F - 63.7 °F 61% 30.07 in 7.0 mi Calm Calm - N/A   Clear
8:35 AM 79.2 °F - 63.5 °F 59% 30.07 in 10.0 mi Calm Calm - N/A   Clear
8:55 AM 80.6 °F 82.0 °F 63.5 °F 56% 30.07 in 10.0 mi SSE 3.5 mph - N/A   Clear
9:15 AM 80.6 °F 82.2 °F 63.9 °F 57% 30.08 in 10.0 mi Calm Calm - N/A   Clear
9:35 AM 84.2 °F 85.6 °F 64.4 °F 51% 30.08 in 10.0 mi Calm Calm - N/A   Clear
9:55 AM 84.2 °F 85.8 °F 64.8 °F 52% 30.09 in 10.0 mi Calm Calm - N/A   Clear
10:15 AM 85.3 °F 86.8 °F 64.8 °F 50% 30.09 in 10.0 mi Calm Calm - N/A   Clear
10:35 AM 87.1 °F 88.6 °F 64.4 °F 47% 30.09 in 10.0 mi SSE 5.8 mph - N/A   Clear
10:55 AM 87.8 °F 89.1 °F 64.2 °F 45% 30.09 in 10.0 mi Calm Calm - N/A   Clear
11:15 AM 89.4 °F 90.5 °F 63.9 °F 42% 30.09 in 10.0 mi SSE 6.9 mph - N/A   Clear
11:35 AM 88.5 °F 89.8 °F 64.0 °F 44% 30.08 in 10.0 mi SE 9.2 mph - N/A   Clear
11:55 AM 89.1 °F 90.6 °F 64.2 °F 44% 30.08 in 10.0 mi South 6.9 mph - N/A   Clear
12:15 PM 89.1 °F 90.6 °F 64.4 °F 44% 30.08 in 10.0 mi South 9.2 mph - N/A   Clear
12:35 PM 90.3 °F 91.9 °F 64.0 °F 42% 30.07 in 10.0 mi SE 8.1 mph - N/A   Clear
12:55 PM 90.5 °F 91.1 °F 62.1 °F 39% 30.07 in 10.0 mi SSE 5.8 mph - N/A   Clear
1:15 PM 91.6 °F 91.6 °F 61.3 °F 36% 30.06 in 10.0 mi SSE 6.9 mph 20.7 mph N/A   Clear
1:35 PM 91.6 °F 92.0 °F 61.7 °F 37% 30.04 in 10.0 mi ESE 6.9 mph - N/A   Clear
1:55 PM 91.2 °F 91.1 °F 60.8 °F 36% 30.04 in 10.0 mi ESE 5.8 mph - N/A   Clear
2:15 PM 91.8 °F 91.5 °F 60.6 °F 35% 30.03 in 10.0 mi SSW 9.2 mph - N/A   Clear
2:35 PM 90.7 °F 90.4 °F 60.6 °F 36% 30.02 in 10.0 mi SW 4.6 mph - N/A   Clear
2:55 PM 91.4 °F 90.7 °F 59.7 °F 34% 30.01 in 10.0 mi South 5.8 mph - N/A   Clear
3:15 PM 91.2 °F 91.1 °F 61.0 °F 36% 30.00 in 10.0 mi South 3.5 mph - N/A   Clear
3:35 PM 91.4 °F 91.4 °F 61.0 °F 36% 29.99 in 10.0 mi ENE 5.8 mph - N/A   Clear
3:55 PM 92.5 °F 91.6 °F 58.5 °F 32% 29.98 in 10.0 mi SSE 5.8 mph - N/A   Clear
4:15 PM 93.4 °F 91.8 °F 56.7 °F 29% 29.97 in 10.0 mi South 6.9 mph - N/A   Clear
4:35 PM 92.7 °F 91.5 °F 57.6 °F 31% 29.96 in 10.0 mi SSE 5.8 mph - N/A   Clear
4:55 PM 92.3 °F 91.3 °F 58.1 °F 32% 29.96 in 10.0 mi SSE 5.8 mph - N/A   Clear
5:15 PM 92.3 °F 91.3 °F 58.1 °F 32% 29.96 in 10.0 mi SSE 4.6 mph - N/A   Clear
5:35 PM 91.9 °F 90.8 °F 58.1 °F 32% 29.95 in 10.0 mi ESE 4.6 mph - N/A   Clear
5:55 PM 91.8 °F 90.9 °F 59.0 °F 33% 29.96 in 10.0 mi SE 3.5 mph - N/A   Clear
6:15 PM 91.6 °F 91.0 °F 59.4 °F 34% 29.95 in 10.0 mi ESE 3.5 mph - N/A   Scattered Clouds
6:35 PM 91.4 °F 90.7 °F 59.5 °F 34% 29.96 in 10.0 mi SE 4.6 mph - N/A   Scattered Clouds
6:55 PM 91.2 °F 90.5 °F 59.4 °F 34% 29.96 in 10.0 mi Calm Calm - N/A   Clear
7:15 PM 90.0 °F 89.7 °F 60.1 °F 37% 29.95 in 10.0 mi Calm Calm - N/A   Clear
7:35 PM 89.1 °F 88.5 °F 59.9 °F 37% 29.95 in 10.0 mi Calm Calm - N/A   Clear
7:55 PM 88.7 °F 87.8 °F 58.8 °F 36% 29.96 in 10.0 mi SE 3.5 mph - N/A   Clear
8:15 PM 86.5 °F 86.8 °F 61.3 °F 43% 29.96 in 10.0 mi Calm Calm - N/A   Clear
8:35 PM 86.7 °F 86.3 °F 59.7 °F 40% 29.97 in 10.0 mi SE 3.5 mph - N/A   Clear
8:55 PM 85.6 °F 85.4 °F 59.9 °F 42% 29.97 in 10.0 mi Calm Calm - N/A   Clear
9:15 PM 84.7 °F 84.8 °F 60.6 °F 44% 29.98 in 10.0 mi East 4.6 mph - N/A   Clear
9:35 PM 86.0 °F 86.1 °F 61.3 °F 43% 29.99 in 10.0 mi East 9.2 mph - N/A   Clear
9:55 PM 85.3 °F 85.7 °F 61.9 °F 45% 29.99 in 10.0 mi ESE 5.8 mph - N/A   Clear
10:15 PM 84.9 °F 85.4 °F 62.2 °F 46% 29.99 in 10.0 mi East 6.9 mph - N/A   Clear
10:35 PM 84.2 °F 85.0 °F 62.8 °F 48% 29.99 in 10.0 mi ESE 6.9 mph - N/A   Clear
10:55 PM 83.5 °F 84.5 °F 63.0 °F 50% 29.99 in 10.0 mi ESE 5.8 mph - N/A   Clear
11:15 PM 83.3 °F 84.3 °F 63.1 °F 50% 29.99 in 10.0 mi ESE 5.8 mph - N/A   Clear
11:35 PM 82.9 °F 84.2 °F 63.5 °F 52% 30.00 in 10.0 mi ESE 5.8 mph - N/A   Clear
11:55 PM 82.6 °F 83.9 °F 63.9 °F 53% 29.99 in 10.0 mi ESE 8.1 mph - N/A   Clear